Torna al catalogo

DELTA 1 DEB

AttivoSSO
NORAD 37663·DEBRIS·🇺🇸 United States

Lanciato Mar 5, 1978 da Vandenberg Space Force Base

Loading…

Prossimi Passaggi (prossime 24 ore)

TLE

AggiornatoSource: Space-Track

Epoca: Sep 12, 2026, 19:43 UTC

1 37663U 78026KA  26255.82157762  .00000245  00000-0  13307-3 0  9994
2 37663  98.8640 291.7023 0037088 215.1334 144.7396 14.20931171216205

Traccia DELTA 1 DEB in tempo reale con AllMySat

Download on the App Store